Location: Yucca Valley
(34.1140°N, 116.4310°W)
Time: 18:50:45
(UTC-07:00)

Daily predictions for brighter satellites

Satellite Brightness Start Highest point End
(mag) Time Altitude Azimuth Time Altitude Azimuth Time Altitude Azimuth
Cosmos 1437 Rocket 4.0 20:26:28 10° NNE 20:29:39 24° ENE 20:32:51 10° SE
Cosmos 1328 Rocket 3.9 20:26:41 10° N 20:31:00 48° E 20:35:16 10° SSE
Cosmos 2026 Rocket 4.3 20:25:44 10° SSW 20:31:47 71° W 20:37:57 10° N
SPOT 5 4.5 20:33:18 10° ESE 20:36:23 18° ENE 20:39:35 10° NNE
Cosmos 968 Rocket 4.1 20:32:12 10° SSW 20:37:18 62° WNW 20:42:29 10° N
Cosmos 2221 4.5 20:38:43 10° NNW 20:42:27 30° W 20:46:13 10° SSW
Cosmos 1743 Rocket 3.8 20:39:54 10° S 20:44:22 75° W 20:48:50 10° N
NOSS 3-1 (A) 4.3 20:40:29 10° SSE 20:45:06 25° ESE 20:49:58 10° NE
Cosmos 1500 Rocket 3.5 20:45:37 10° S 20:49:59 83° E 20:54:23 10° N
Meteor 1-21 Rocket 4.2 20:44:53 10° S 20:50:25 90° ENE 20:55:59 10° N
Cosmos 1437 3.8 20:47:50 10° SSE 20:50:40 27° E 20:53:31 10° NNE
Cosmos 2228 Rocket 3.6 20:51:14 10° NNW 20:55:41 62° W 21:00:09 10° S
S3M 4.1 20:56:45 10° N 21:02:51 78° W 21:08:59 10° S
Envisat 3.3 20:59:41 13° SE 21:04:00 49° ENE 21:08:54 10° N
ERS-1 Rocket 3.0 20:59:50 10° SSE 21:04:51 88° ENE 21:09:55 10° NNW
Cosmos 1441 Rocket 4.3 21:01:43 10° SSW 21:05:20 45° W 21:08:58 10° N
Delta 2 Rocket 3.1 21:01:53 10° W 21:05:36 71° N 21:09:00 10° E
ATLAS 2AS CENTAUR R/B 4.2 21:05:36 15° ESE 21:07:36 16° ESE 21:11:57 10° ENE
Cosmos 2219 3.3 21:02:38 10° S 21:08:15 59° ESE 21:13:54 10° NNE
deb Chang Zheng 4 3.7 21:06:14 10° N 21:10:34 81° WNW 21:14:54 10° SSW
Cosmos 2151 2.9 21:11:47 10° S 21:15:57 70° E 21:20:08 10° NNE
Cosmos 2112 Rocket 4.4 21:15:34 10° N 21:20:39 49° ENE 21:23:46 22° SE
Cosmos 2322 3.8 21:15:27 10° NNW 21:21:10 67° ENE 21:25:00 21° SSE
Cosmos 2322 Rocket 3.4 21:16:20 10° NW 21:21:27 37° WSW 21:26:34 10° S
Cosmos 1515 Rocket 4.3 21:17:54 10° NNW 21:22:12 52° W 21:26:27 10° S
Cosmos 2298 Rocket 4.3 21:20:10 11° S 21:25:02 47° ESE 21:30:07 10° NNE
CZ-4 SHROUD 3.6 21:24:12 33° SE 21:25:10 46° ENE 21:28:12 10° N
Sich 1 3.9 21:25:43 25° SE 21:27:07 31° E 21:31:00 10° NNE
Aureole 3 4.4 21:21:54 10° S 21:28:51 80° E 21:34:27 10° N
MetOp-B 4.4 21:26:17 23° SE 21:29:32 54° ENE 21:34:45 10° N
USA 245 4.4 21:31:02 16° NE 21:31:02 16° NE 21:32:08 10° NNE
Cosmos 2360 Rocket 2.1 21:24:49 10° NNW 21:30:30 84° ENE 21:34:08 23° SSE
Cosmos 2058 2.9 21:28:15 23° SSE 21:30:40 59° E 21:34:42 10° NNE
Cosmos 1633 Rocket 3.9 21:29:42 27° ESE 21:30:54 32° E 21:34:47 10° NNE
NOSS 3-1 (C) 3.3 21:25:34 10° SSW 21:31:19 83° ESE 21:37:38 10° NNE
Cosmos 1908 3.7 21:27:42 10° NNW 21:31:33 59° W 21:34:30 16° S
SL-16 R/B 3.7 21:28:05 10° NW 21:33:02 32° WSW 21:37:58 10° SSW
Cosmos 883 Rocket 4.4 21:27:20 10° N 21:33:33 89° WNW 21:38:34 16° S
DELTA 2 R/B (1) 3.6 21:29:57 10° WNW 21:35:32 82° NNE 21:38:52 25° ESE
Cosmos 1674 4.1 21:31:59 10° SSW 21:35:34 38° W 21:39:11 10° N
Cosmos 405 3.7 21:34:15 10° NNW 21:37:47 51° W 21:39:59 20° SSW
OAO 2 Rocket 3.4 21:32:36 10° WSW 21:37:53 67° SSE 21:42:20 15° E
Cosmos 1151 Rocket 3.5 21:34:31 10° NNW 21:38:46 60° W 21:41:54 18° S
OTV 4 2.2 21:40:06 10° SW 21:41:17 20° SW 21:41:17 20° SW
Tiangong 1 2.4 21:43:17 10° W 21:46:14 40° NNW 21:49:11 10° NE
Cosmos 1805 Rocket 3.5 21:43:27 21° S 21:46:22 90° S 21:50:50 10° N
SL-23 DEB 4.4 21:42:41 10° NW 21:47:10 46° NE 21:48:13 34° E
YAOGAN 6 2.6 21:47:15 49° SE 21:48:01 65° ENE 21:51:37 10° N
H-2A R/B 3.4 21:48:41 21° E 21:50:12 24° ENE 21:54:28 10° NNE
CZ-4 R/B 4.0 21:46:01 10° NNE 21:50:50 55° E 21:52:31 36° SSE
Cosmos 1300 2.7 21:48:29 10° N 21:52:18 63° E 21:52:56 53° SE
CZ-4B R/B 3.5 21:48:06 10° NNE 21:53:23 85° ESE 21:56:59 20° SSW
Cosmos 2227 Rocket 2.8 21:53:14 33° ESE 21:53:59 34° ESE 21:59:02 10° NE
Meteor 1-11 4.2 21:50:02 18° S 21:54:29 87° E 22:00:15 10° N
Cosmos 1680 Rocket 3.9 21:51:57 10° NNW 21:57:07 60° WSW 21:59:53 27° S
Hubble Space Telescope 3.2 21:55:42 10° SW 21:56:00 11° SSW 21:56:00 11° SSW
SPOT 1/Viking Rocket 3.4 22:00:26 39° SSE 22:02:21 78° ENE 22:07:31 10° N
H-2A R/B 3.9 21:59:24 12° SSW 22:02:52 27° W 22:06:43 10° NW
Cosmos 2315 Rocket 4.1 21:56:52 10° N 22:03:03 73° W 22:06:50 25° S
Cosmos 1898 Rocket 3.5 22:02:06 17° SSW 22:06:08 80° WNW 22:11:22 10° NNE
Cosmos 1666 Rocket 3.8 22:07:02 32° SSW 22:08:57 68° W 22:13:21 10° N
Cosmos 1707 Rocket 3.5 22:04:38 10° N 22:09:00 79° W 22:10:06 50° S
Cosmos 220 Rocket 3.9 22:08:18 58° SSE 22:09:01 72° ESE 22:13:26 10° NNE
Cosmos 1241 Rocket 4.4 22:06:43 30° S 22:09:39 58° ESE 22:15:45 10° NE
Cosmos 2333 Rocket 3.2 22:06:45 10° N 22:11:52 32° ENE 22:13:18 28° E
SL-16 R/B 4.4 22:09:49 10° NNE 22:11:55 12° NE 22:13:53 10° ENE
Cosmos 2150 Rocket 4.4 22:08:56 13° SSW 22:13:47 67° WNW 22:19:14 10° N
SPOT 5 3.9 22:11:50 22° SSW 22:14:06 37° W 22:18:28 10° NNW
Cosmos 1455 4.0 22:11:42 10° NNE 22:13:51 21° NE 22:13:51 21° NE
Cosmos 2297 Rocket 2.7 22:21:13 40° E 22:21:13 40° E 22:26:13 10° NE
Cosmos 1470 Rocket 3.6 22:22:50 59° ENE 22:22:50 59° ENE 22:26:48 10° NNE
COSMOS 2428 2.8 22:18:02 10° NNW 22:23:43 73° WSW 22:25:20 47° S
Cosmos 1933 Rocket 3.7 22:23:56 60° E 22:23:56 60° E 22:28:08 10° NNE
ARGOS 3.1 22:22:33 47° S 22:24:10 78° WSW 22:29:35 10° NNW
Nadezhda 1 Rocket 4.1 22:19:46 10° N 22:25:44 54° E 22:26:55 47° ESE
CZ-3A R/B 3.7 22:10:08 10° W 22:27:29 40° SSW 22:28:13 39° S
Cosmos 2219 Rocket 2.2 22:25:55 10° NNW 22:31:28 62° ENE 22:32:19 55° ESE
Cosmos 1726 3.0 22:29:09 10° NNW 22:32:46 44° W 22:32:48 44° W
Cosmos 1745 Rocket 3.9 22:31:50 41° S 22:34:11 86° W 22:40:24 10° N
CZ-4C R/B 3.9 22:35:43 47° NNW 22:35:43 47° NNW 22:38:16 10° NNW
ERBS 4.1 22:38:38 28° NNE 22:38:38 28° NNE 22:40:30 10° NNE
DMSP B5D2-2 3.9 22:36:45 10° NNE 22:41:59 78° ESE 22:42:19 74° SE
Cosmos 1709 Rocket 4.3 22:42:19 46° E 22:42:30 46° E 22:48:17 10° NNE
Landsat 7 3.7 22:44:50 76° SW 22:44:58 77° WSW 22:49:45 10° NNW
Cosmos 292 Rocket 3.8 22:43:08 10° NNW 22:47:50 70° W 22:47:50 70° W
NOSS 0 Rocket 3.8 22:42:16 10° NNW 22:48:26 77° ENE 22:49:19 65° SE
USA 32 4.5 22:44:06 10° NNW 22:49:14 55° W 22:50:14 47° SW
Cosmos 1980 3.7 22:45:04 10° NNW 22:50:41 64° ENE 22:51:01 63° E
Cosmos 1271 Rocket 3.8 22:47:25 10° NNW 22:50:33 41° WNW 22:50:33 41° WNW
Spot 2 4.3 22:49:17 10° NNE 22:54:11 84° NNE 22:54:11 84° NNE
Meteor 1-4 Rocket 4.2 22:51:30 10° NNW 22:54:14 31° WNW 22:54:14 31° WNW
ATLAS 2AS CENTAUR R/B 2.9 22:52:53 26° SSW 22:57:28 85° WNW 23:05:30 10° NNE
Cosmos 1386 Rocket 4.4 22:57:19 56° SSW 22:58:35 74° W 23:04:35 10° N
Terra 1.9 23:01:11 71° WNW 23:01:11 71° WNW 23:05:36 10° NNW
Cosmos 2237 Rocket 2.1 22:57:32 10° NNW 23:03:15 76° ENE 23:03:21 76° E
Cosmos 2082 4.2 23:01:36 38° SW 23:03:35 58° WNW 23:09:13 10° NNE
CARTOSAT-1 4.2 23:05:23 51° NW 23:05:23 51° NW 23:08:55 10° NNW
Spot 4 4.0 23:05:42 72° NNW 23:05:42 72° NNW 23:10:04 10° NNW
Lacrosse 4 Rocket 3.4 23:03:08 10° N 23:06:05 22° NE 23:06:05 22° NE
Cosmos 1862 Rocket 4.3 23:03:28 10° NNW 23:06:52 51° NW 23:06:52 51° NW
Cosmos 1626 3.9 23:10:26 31° NW 23:10:26 31° NW 23:12:54 10° N
BREEZE-M DEB (TANK) 4.4 23:11:14 35° NE 23:11:14 35° NE 23:15:33 10° NE
Cosmos 2181 Rocket 4.1 23:07:29 10° N 23:13:49 59° E 23:13:59 59° E
ATLAS 3B R/B 3.2 23:10:42 10° NNW 23:17:19 45° NE 23:18:29 41° E
OAO 2 Rocket 4.1 23:17:26 10° W 23:21:19 49° W 23:21:19 49° W
FALCON 9 R/B 3.0 23:08:09 10° W 23:28:17 90° S 23:30:02 56° E
H-2A R/B 3.1 23:29:19 36° W 23:29:20 36° W 23:34:18 10° NNW
Cosmos 1269 Rocket 4.4 23:30:30 10° NNW 23:34:54 61° N 23:34:54 61° N
COSMOS 2455 3.0 23:30:45 10° NNW 23:36:29 64° NE 23:36:29 64° NE
Cosmos 2227 Rocket 3.9 23:34:58 18° WSW 23:38:00 28° WNW 23:42:49 10° N
SeaSat 1 3.3 23:49:07 44° NNE 23:49:07 44° NNE 23:52:54 10° NNW
